User: anonymous   Login
Location: Campo Alegre
(10.1673°N, 67.4431°W)
Time: 18:42:25
(UTC+00:00)
Language:

Cosmos 1943 - Orbit

View from above orbital plane
View from above orbital plane
View from above satellite
View from above satellite

Ground track
Ground track

The orbit data is extracted from the following two-line orbital elements,

1 19119U 88039A   24172.93236025 -.00000010  00000-0  19178-4 0  9997
2 19119  71.0023 123.2860 0009757 129.6622 298.4906 14.15455682864113
Epoch (UTC): 20 June 2024 22:22:35
Eccentricity: 0.0009757
inclination: 71.0023°
perigee height: 834 km
apogee height: 848 km
right ascension of ascending node: 123.2860°
argument of perigee: 129.6622°
revolutions per day: 14.15455682
mean anomaly at epoch: 298.4906°
orbit number at epoch: 86411

The dashed part of the orbit path shows where the satellite is in the earth's shadow,  

DLR